Wind_Speed
5 4 3 4 4 5 7 9 11 13 15 16 16 16 15 15 15 17 19 16 23 24 25 21 19 17 19 17 17 19 18 21 12 24 25 29 26 20 35 31 24 23 24
4 3 3 3 4 5 6 9 11 13 15 17 18 18 18 18 20 15 19 21 23 25 24 21 21 17 14 16 18 19 19 25 20 19 25 26 24 17 29 34 32 22 23
2 2 2 2 4 6 7 8 10 13 15 16 15 16 16 17 15 19 22 22 24 26 26 19 21 16 15 16 18 19 22 21 22 21 23 25 20 20 28 31 31 28 21
1 1 2 4 5 7 7 8 10 11 13 15 16 16 14 17 16 25 25 24 24 23 23 22 20 15 18 15 15 17 21 24 24 23 23 20 18 20 18 25 31 32 28
2 2 3 4 6 7 8 8 10 11 12 15 15 15 11 15 15 23 24 24 23 22 22 20 20 21 15 12 15 19 23 23 24 21 20 18 17 18 16 19 20 26 22
2 3 3 4 6 8 8 9 9 10 13 15 15 13 10 11 14 16 20 24 21 22 20 22 23 22 16 11 16 24 26 26 21 22 14 18 15 17 17 18 18 19 6
4 5 5 5 7 8 10 11 12 11 13 14 16 16 8 12 14 13 17 19 19 18 21 23 23 17 18 18 24 24 22 25 25 19 17 19 21 21 20 20 17 17 13
5 5 6 7 9 10 12 11 13 14 14 16 19 18 14 18 16 13 14 18 19 19 23 22 24 21 17 18 24 23 24 22 24 23 25 25 26 25 20 18 18 21 20
4 5 7 9 10 12 13 13 14 14 15 18 16 20 22 22 16 11 14 18 21 21 22 27 24 23 18 18 26 23 21 21 19 24 23 24 21 21 18 19 12 12 6
5 6 7 9 11 12 14 10 13 16 18 15 18 21 24 19 6 11 14 18 20 23 25 24 24 22 20 31 26 19 19 19 23 24 24 23 19 15 11 5 8 8 6
5 6 7 8 10 12 11 13 15 18 20 22 21 23 5 12 11 12 22 20 23 26 24 25 23 24 29 25 21 19 18 17 21 19 18 18 19 17 16 16 14 10 8
4 6 8 10 10 11 13 14 18 20 15 20 24 19 14 18 18 19 28 29 27 23 23 23 26 25 24 22 20 17 17 16 13 13 14 16 18 19 20 19 17 11 10
6 7 9 10 12 11 15 16 15 15 11 15 15 16 18 20 17 21 29 25 23 23 22 26 24 21 21 17 17 17 18 10 10 11 11 12 16 17 16 18 14 15 9
8 10 10 10 12 13 17 16 12 12 8 11 12 14 16 17 17 26 21 22 20 21 28 23 23 20 20 19 18 17 14 12 9 10 11 14 14 15 15 14 15 17 13
9 11 9 13 14 17 12 16 11 6 3 7 7 10 14 14 17 22 20 24 21 19 23 19 19 19 18 19 20 19 17 13 11 10 12 14 13 12 13 12 12 12 10
9 11 11 12 14 14 14 14 7 5 3 6 4 8 13 11 21 21 20 21 17 21 19 17 17 17 16 17 17 17 18 16 13 13 12 12 13 9 14 11 11 10 8
8 10 13 15 16 15 15 14 16 3 3 7 7 14 13 14 25 26 19 16 20 22 16 18 17 17 18 17 16 17 17 17 17 13 11 11 12 9 11 10 10 9 9
8 13 8 14 13 14 14 14 14 12 13 13 12 18 17 16 25 22 14 14 22 22 19 19 19 20 20 19 19 18 18 17 15 13 11 11 10 6 9 8 9 9 8
9 8 12 11 16 12 12 16 13 14 15 15 18 17 18 23 21 13 15 14 17 20 22 22 22 21 22 21 20 20 19 17 15 14 12 10 10 5 7 7 8 7 7
9 8 9 11 15 13 15 16 13 16 16 15 16 13 20 23 17 17 16 14 17 23 25 25 25 24 23 22 21 20 20 19 17 13 11 10 8 5 7 7 7 6 6
11 10 7 11 12 14 13 14 16 16 16 17 16 18 22 22 17 19 20 19 18 25 28 27 26 26 25 24 23 22 21 22 18 16 13 11 10 9 8 7 7 5 6
17 10 11 12 11 12 14 9 14 15 14 15 17 19 22 19 19 20 21 21 21 29 31 28 27 26 26 25 25 25 24 23 21 17 15 13 11 10 8 6 5 4 4
10 10 10 10 9 12 12 11 13 12 12 14 17 18 20 21 20 21 22 23 22 31 31 30 29 29 28 27 26 25 25 25 23 20 19 17 14 11 10 8 6 4 2
9 10 11 12 13 12 12 11 14 12 12 14 15 16 18 22 22 23 24 24 27 31 30 31 31 30 31 31 29 28 26 24 19 17 17 18 16 12 11 11 9 7 5
9 10 11 11 12 13 13 12 14 10 13 15 15 16 15 23 23 25 25 25 27 28 31 33 32 33 32 29 28 27 19 16 12 10 6 6 8 9 10 10 10 9 9
10 10 12 12 12 12 14 11 12 12 14 15 16 16 15 22 26 26 26 27 29 30 33 32 33 32 29 28 26 20 17 14 13 10 7 4 2 5 10 12 12 11 12
Wind_Direction
112 94 67 33 16 6 0 352 348 347 345 337 330 326 324 330 339 336 325 338 340 332 320 316 318 321 324 329 328 325 319 332 308 315 309 314 321 332 349 348 340 330 332
104 82 54 25 3 353 345 349 347 348 346 344 343 337 337 347 339 357 2 349 338 327 324 325 321 311 323 327 325 325 318 321 314 311 313 319 315 335 344 350 345 345 343
75 83 45 347 340 339 338 343 348 350 345 345 345 343 344 344 30 10 353 341 330 319 322 327 319 322 323 325 329 329 326 315 313 312 309 309 333 342 346 347 344 348 346
124 328 300 2 334 317 329 340 334 333 340 343 345 345 358 11 11 0 347 338 328 319 320 325 319 321 327 333 339 335 330 322 317 313 313 318 341 336 346 348 340 345 341
297 312 329 317 329 321 314 312 326 325 336 337 337 340 2 3 346 336 336 335 327 325 327 337 332 328 323 333 343 339 332 318 310 309 310 320 334 339 345 341 334 335 344
290 286 301 318 326 322 315 312 316 321 327 325 327 332 339 348 325 328 329 336 339 333 337 333 330 329 327 334 338 336 333 323 322 318 317 321 325 330 336 337 334 342 331
261 293 315 317 319 325 328 319 311 318 319 318 316 315 307 325 300 313 334 333 331 332 333 334 329 327 328 332 336 335 325 324 329 330 324 327 326 327 325 322 324 325 306
280 308 325 335 333 333 327 328 347 333 327 318 311 310 299 305 298 305 322 333 321 325 323 324 322 324 314 335 338 329 323 319 319 329 327 323 319 313 304 307 321 331 329
313 328 334 333 335 333 333 346 336 327 319 308 320 313 303 299 301 310 330 330 327 333 331 325 318 315 301 324 335 320 313 314 322 326 320 316 321 312 300 298 324 336 327
355 333 325 325 327 330 312 333 331 317 309 303 302 297 296 317 355 0 355 337 335 329 323 319 320 323 322 326 325 318 308 317 325 327 326 331 334 341 328 309 321 336 331
323 318 315 327 328 315 346 329 311 301 297 293 295 293 39 60 34 30 4 356 343 332 329 325 326 327 324 325 322 320 316 317 316 314 320 328 337 349 359 358 349 317 335
329 314 326 328 322 317 325 308 303 300 314 10 350 353 11 11 13 2 351 345 345 337 329 327 325 329 331 331 332 317 322 321 318 331 344 338 341 341 333 346 336 331 294
321 325 323 322 324 328 313 312 316 345 5 354 345 360 352 349 357 352 344 342 346 341 339 333 335 332 339 335 337 340 331 334 342 346 337 327 329 325 331 340 333 334 328
344 340 338 320 330 315 307 302 321 319 328 339 358 354 353 350 353 342 341 343 340 339 338 342 343 347 343 340 343 343 336 346 343 333 328 329 333 338 341 342 340 335 349
346 319 343 343 325 318 328 317 309 315 333 19 3 352 357 350 345 341 343 344 338 336 340 340 343 343 343 342 339 341 339 336 327 331 329 338 329 343 346 350 355 346 352
337 346 340 327 306 315 329 331 331 292 352 9 358 358 357 337 344 343 342 352 344 338 343 339 336 334 333 334 330 327 328 331 333 323 326 327 329 331 348 357 357 5 360
338 340 332 327 340 342 338 322 310 244 295 7 23 4 346 335 343 341 329 348 351 355 339 334 329 326 325 325 323 320 317 318 323 325 326 325 332 339 351 346 355 359 3
330 312 339 332 312 302 330 328 337 10 24 16 12 358 349 342 338 337 342 347 346 348 339 330 326 323 320 318 319 317 314 315 318 323 320 314 323 331 343 343 348 342 344
302 335 338 318 295 311 347 338 347 37 19 8 348 345 346 339 338 350 1 346 341 338 337 330 325 320 317 315 313 313 313 312 309 309 306 309 318 312 336 329 336 336 338
332 291 304 298 309 2 359 341 12 31 10 2 348 354 349 343 342 343 335 331 322 332 335 328 325 323 319 316 313 311 307 310 313 307 296 299 315 322 320 318 325 325 330
308 318 278 311 359 359 355 333 34 19 8 352 355 348 347 342 339 339 335 339 338 339 336 329 324 323 321 318 317 313 308 309 308 298 292 287 287 290 296 300 310 314 313
302 335 340 351 350 360 330 358 27 10 358 4 352 348 349 349 344 337 336 335 333 337 337 332 326 323 320 319 318 314 309 304 306 298 285 279 271 270 280 282 292 302 304
339 342 341 345 354 347 343 30 21 2 1 8 359 352 349 347 342 338 336 334 335 335 336 333 330 329 332 328 324 315 305 298 296 288 279 276 270 263 254 248 247 256 256
347 343 343 352 0 345 1 43 16 353 15 12 3 351 349 347 340 337 333 334 331 334 334 335 336 336 334 334 332 330 320 316 308 291 272 264 261 253 242 237 232 222 208
2 356 346 353 355 352 350 27 4 10 14 10 358 349 351 350 342 338 335 332 330 333 334 337 341 344 342 345 346 342 347 352 358 351 312 251 235 226 217 212 208 200 192
347 4 354 359 359 355 344 18 360 21 18 8 355 353 352 350 344 341 338 335 335 336 337 340 345 350 351 355 353 353 2 11 14 22 38 54 155 200 200 194 187 182 177
Height
825 826 827 827 827 828 827 826 826 824 820 818 816 813 810 806 805 803 800 798 795 792 789 785 783 780 777 774 771 769 765 762 754 746 741 734 728 723 717 710 704 698 692
826 826 827 827 827 827 827 826 825 823 821 818 815 812 809 806 804 801 799 798 795 791 787 782 781 778 774 772 768 765 762 758 754 745 738 731 727 722 717 711 703 697 691
826 826 826 826 826 826 825 824 823 822 820 817 814 811 809 805 802 802 801 798 794 790 785 781 778 775 772 768 765 763 760 755 751 745 737 730 726 721 715 711 703 696 690
825 825 825 825 825 824 824 822 822 820 818 816 813 811 808 806 804 803 800 796 792 787 784 779 776 773 769 766 764 762 758 753 748 742 736 729 725 721 717 711 700 695 689
824 824 824 823 823 823 822 820 820 819 817 815 812 809 806 806 805 803 799 794 790 786 782 778 775 771 767 765 762 759 756 752 746 741 735 729 725 721 717 713 708 700 690
824 824 822 822 821 821 819 818 817 816 815 813 810 808 805 804 802 800 797 792 788 785 780 776 773 768 765 762 759 756 754 749 744 739 734 731 726 722 718 714 709 703 695
823 822 821 820 819 818 817 816 814 813 812 810 808 805 801 800 797 795 794 790 786 782 779 774 770 767 763 760 756 753 749 746 743 738 733 730 726 722 718 713 710 706 699
821 820 819 819 818 817 816 814 813 812 810 808 805 802 798 795 793 791 790 787 783 780 776 772 768 764 761 757 754 750 746 742 738 736 732 728 724 720 717 714 710 704 695
819 819 819 818 818 817 815 814 812 810 808 805 802 799 794 791 789 789 788 785 781 777 774 770 765 761 758 754 751 746 742 738 736 732 728 724 720 717 713 712 709 705 698
819 819 819 818 817 816 814 812 811 809 805 801 798 794 789 788 789 789 787 784 779 775 770 766 762 759 755 751 747 743 739 736 733 728 724 720 717 714 711 709 708 706 702
819 819 818 817 816 814 812 811 809 805 802 797 794 790 790 789 788 788 786 782 778 773 768 763 759 755 751 746 743 740 736 733 730 727 724 720 716 713 710 709 708 705 702
819 818 817 816 815 813 811 808 805 802 799 797 795 793 791 789 787 786 783 780 777 773 767 762 757 752 748 743 740 737 734 731 728 726 723 721 717 714 710 707 706 703 701
818 817 816 815 813 811 809 806 803 801 799 798 796 794 792 790 788 785 783 778 775 771 766 760 754 749 745 742 739 736 732 729 727 725 723 721 718 715 710 708 705 702 699
818 817 816 814 812 809 806 804 801 799 797 796 795 795 793 790 788 785 781 777 774 769 764 759 754 749 746 742 738 734 732 729 727 725 723 720 717 714 711 709 706 702 699
818 816 815 813 811 807 804 801 798 796 796 797 797 795 792 790 789 785 781 777 773 769 763 758 753 749 745 741 738 735 731 728 726 724 722 719 717 714 711 709 707 704 701
818 817 815 813 809 805 802 799 796 796 796 796 795 794 791 791 787 783 780 776 771 768 763 758 753 749 745 742 738 735 731 728 725 723 720 718 716 714 712 709 708 706 704
818 817 815 812 809 806 803 799 795 794 794 795 793 792 790 788 785 781 778 775 771 766 763 757 753 749 744 740 737 734 730 727 724 721 719 717 715 713 712 710 709 707 705
817 815 814 812 809 804 801 798 795 793 793 795 795 792 789 787 783 778 776 773 769 764 761 756 752 747 743 738 735 731 728 725 722 720 718 716 714 712 712 710 709 708 706
816 815 813 811 806 802 800 798 795 794 795 796 795 792 790 786 781 777 775 773 769 765 759 754 749 745 740 736 732 728 725 722 719 717 715 714 712 711 710 710 708 708 706
815 813 811 808 804 801 801 799 796 796 798 797 795 792 789 784 780 777 774 770 766 762 758 752 747 742 737 732 727 723 720 718 715 713 712 711 710 709 709 708 707 706 705
813 810 808 806 804 804 802 800 799 799 799 798 796 794 790 785 781 777 773 769 765 760 755 750 744 739 733 728 723 719 716 713 711 709 707 707 706 706 706 706 706 705 705
812 810 808 806 805 805 803 801 801 801 800 799 797 794 790 786 782 778 773 769 764 760 754 748 741 735 730 725 720 715 711 707 705 703 702 702 702 703 703 704 704 704 704
813 811 809 807 805 805 801 800 802 802 800 799 798 795 791 787 782 778 773 768 763 757 751 745 738 731 726 721 716 711 706 701 699 697 695 696 697 698 699 701 702 703 704
813 812 809 807 806 805 802 802 803 801 800 799 798 796 792 788 783 778 772 768 762 754 749 742 735 729 722 715 710 705 700 695 690 688 688 689 690 693 695 697 699 701 703
814 814 811 809 808 806 803 802 803 801 800 799 798 795 792 789 782 777 771 767 760 754 747 739 733 727 718 712 706 701 696 691 687 685 682 683 685 688 691 693 696 699 701
816 815 813 811 810 808 805 803 803 802 801 801 799 796 793 789 782 777 771 765 760 753 745 738 732 725 715 710 705 700 695 691 688 686 684 683 683 685 687 690 693 697 700